DW5714 Weather Reports


time (UTC)temp
C
wind
direction
speed
KPH
gust
KPH
rain 1hr
cm
rain 24hr
cm
rain mn
cm
humidity
%
barometer
mb
20260504081556 4 138 0.0 4.8 0.00 0.00 0.00 79 1014.2
20260504044535 5 338 0.0 3.2 0.00 0.00 0.00 74 1014.2
20260504043030 5 336 0.0 0.0 0.00 0.00 0.00 72 1014.3
20260504041527 5 336 0.0 0.0 0.00 0.00 0.00 73 1014.3
20260504040024 5 336 0.0 0.0 0.00 0.00 0.00 71 1014.4
20260504034524 6 336 0.0 0.0 0.00 0.00 0.00 71 1014.4
20260504033024 6 336 0.0 0.0 0.00 0.00 0.00 71 1014.4
20260504031525 5 336 0.0 0.0 0.00 0.00 0.00 72 1014.4
20260504030022 5 336 0.0 0.0 0.00 0.00 0.00 72 1014.4
20260504024522 5 336 0.0 0.0 0.00 0.00 0.00 71 1014.5
20260504023022 5 336 0.0 0.0 0.00 0.00 0.00 67 1014.6
20260504021522 6 336 0.0 0.0 0.00 0.00 0.00 65 1014.6
20260504020020 6 336 0.0 0.0 0.00 0.00 0.00 64 1014.5
20260504014520 7 336 0.0 1.6 0.00 0.00 0.00 63 1014.4
20260504013026 6 336 0.0 3.2 0.00 0.00 0.00 66 1014.1
20260504011520 7 336 0.0 0.0 0.00 0.00 0.00 64 1014.1
20260504010018 7 336 0.0 3.2 0.00 0.00 0.00 63 1013.9
20260504004518 7 336 0.0 0.0 0.00 0.00 0.00 68 1013.8
20260504003017 7 336 0.0 1.6 0.00 0.00 0.00 65 1013.7
20260504001517 7 336 0.0 0.0 0.00 0.00 0.00 61 1013.5
20260504000045 8 336 0.0 0.0 0.00 0.00 0.00 60 1013.4
20260503234516 8 336 0.0 0.0 0.00 0.00 0.00 58 1013.5
20260503233016 9 336 0.0 0.0 0.00 0.00 0.00 54 1013.4
20260503231515 9 336 0.0 8.0 0.00 0.00 0.00 52 1013.4
20260503230013 9 334 3.2 8.0 0.00 0.00 0.00 53 1013.4
20260503224514 10 355 3.2 14.5 0.00 0.00 0.00 52 1013.4
20260503223015 10 329 6.4 17.7 0.00 0.00 0.00 53 1013.6
20260503221513 10 342 4.8 27.4 0.00 0.00 0.00 52 1013.6
20260503220012 10 346 9.7 22.5 0.00 0.00 0.00 51 1013.6
20260503214512 10 314 8.0 22.5 0.00 0.00 0.00 50 1013.7
20260503213011 10 333 3.2 19.3 0.00 0.00 0.00 48 1013.5
20260503211514 10 327 6.4 12.9 0.00 0.00 0.00 46 1013.3
20260503210011 10 304 6.4 20.9 0.00 0.00 0.00 44 1013.1
20260503204509 11 315 9.7 20.9 0.00 0.00 0.00 46 1013.2
20260503203018 10 342 3.2 16.1 0.00 0.00 0.00 44 1013.2
20260503201509 11 355 3.2 16.1 0.00 0.00 0.00 42 1013.0
20260503200006 10 308 8.0 17.7 0.00 0.00 0.00 45 1013.2
20260503194507 10 324 1.6 14.5 0.00 0.00 0.00 41 1013.4
20260503193008 11 340 4.8 14.5 0.00 0.00 0.00 41 1013.6
20260503191502 11 331 6.4 27.4 0.00 0.00 0.00 38 1013.7
20260503190104 12 17 8.0 19.3 0.00 0.00 0.00 38 1014.1
20260503184559 11 330 4.8 17.7 0.00 0.00 0.00 45 1014.1
20260503183056 11 333 6.4 17.7 0.00 0.00 0.00 41 1014.3
20260503181604 10 297 8.0 16.1 0.00 0.00 0.00 40 1014.6
20260503180054 10 324 6.4 22.5 0.00 0.00 0.00 46 1014.6
20260503174552 10 299 9.7 19.3 0.00 0.00 0.00 42 1014.9
20260503173057 10 335 8.0 24.1 0.00 0.00 0.00 44 1014.9
20260503171550 9 322 9.7 27.4 0.00 0.00 0.00 50 1014.9